Wetbulb
63.83 59.48 59.59 56.45 48.10 46.26 44.62 49.59 55.37 55.00 56.62 55.35 57.22 56.04 62.10 64.93 63.52 59.05 71.66 75.11 75.57 75.96 76.89 77.02 77.47 77.70 77.55 77.14 77.01 76.83 76.83 76.86 76.89 76.94 77.01 77.25 77.13 77.16 76.81 76.79 76.74 77.02 76.26 75.20 74.07 73.50 73.81 74.15 74.19
60.17 59.19 56.98 52.47 43.81 40.02 45.15 53.57 53.74 54.80 57.93 57.65 57.12 59.88 61.92 63.70 68.64 68.82 71.05 75.04 75.77 75.99 76.19 76.26 77.50 77.52 77.57 77.29 76.83 76.57 76.75 76.78 76.73 76.76 76.93 77.30 77.07 76.90 76.86 76.69 76.39 76.29 74.97 74.04 73.42 73.61 73.95 74.07 74.01
60.45 58.45 49.56 46.76 43.26 42.49 45.23 53.16 56.61 57.70 59.61 57.78 56.48 63.59 64.71 64.09 70.34 69.87 73.72 75.46 75.68 75.28 76.24 76.67 77.65 77.40 77.65 77.54 76.68 76.60 76.70 76.68 76.71 76.73 76.93 77.15 77.02 76.69 76.57 76.51 76.14 75.81 74.28 73.47 73.02 73.47 74.11 74.12 73.77
55.50 54.02 50.94 42.79 41.83 47.66 50.91 53.92 56.53 58.96 59.09 58.42 58.90 62.63 67.39 70.43 70.61 71.77 74.88 75.55 74.39 75.03 76.49 77.62 77.52 77.29 77.52 77.34 76.79 76.65 76.73 76.70 76.66 76.76 76.80 76.90 76.84 76.48 76.41 76.38 75.84 75.36 74.34 73.12 73.21 73.89 74.23 74.54 74.39
52.84 51.18 43.25 40.71 43.63 49.68 53.22 56.31 57.76 57.58 58.40 56.67 61.83 61.19 64.87 69.96 71.31 72.06 74.15 74.72 73.40 74.49 76.05 76.96 77.71 77.44 77.47 77.37 76.89 76.71 76.80 76.45 76.38 76.65 76.85 76.82 76.46 76.18 76.19 76.10 75.74 75.29 74.52 73.74 72.91 72.69 72.21 72.18 72.17
46.67 48.88 40.43 39.92 44.95 50.49 53.60 55.46 56.77 57.63 56.72 58.02 58.50 59.05 60.88 70.21 70.16 70.38 73.70 73.46 73.64 74.88 75.71 76.50 77.69 77.63 77.21 77.17 76.84 76.40 76.27 76.39 76.32 76.35 76.57 76.56 76.25 76.13 75.98 75.77 75.63 75.11 74.49 73.82 72.67 71.71 71.10 70.55 70.30
45.02 42.95 40.77 43.56 46.03 49.65 53.44 56.31 54.29 54.28 54.70 54.95 58.81 55.29 56.69 59.77 69.58 71.19 70.76 72.91 75.07 75.30 74.84 75.45 76.23 77.12 77.55 77.01 76.54 76.44 76.16 76.06 75.93 75.82 75.85 76.15 75.95 75.82 75.75 75.54 75.28 74.79 74.09 73.29 72.07 71.24 70.53 69.82 69.37
47.42 44.26 42.06 45.61 45.89 47.64 53.48 56.68 56.52 54.03 55.26 58.45 59.44 53.51 51.83 56.84 59.17 68.58 70.43 70.76 74.71 75.17 74.46 74.08 74.93 75.85 75.70 76.10 76.85 76.57 76.27 76.10 75.69 75.77 75.90 75.70 75.71 75.63 75.60 74.59 74.66 74.83 73.96 73.10 71.98 71.10 70.39 69.72 69.31
50.88 42.35 41.00 43.69 46.50 49.25 53.49 53.98 57.54 58.13 54.87 56.49 56.32 56.70 57.73 58.52 58.66 58.15 64.24 69.52 74.08 74.81 73.64 73.13 73.86 74.20 74.41 75.17 76.37 76.38 76.86 76.32 75.91 75.77 75.74 74.68 73.84 74.13 74.64 74.06 74.73 74.67 73.93 73.02 72.11 71.09 70.42 70.01 70.03
45.16 42.11 43.11 48.59 50.30 49.84 51.51 50.99 54.28 53.81 53.81 54.43 56.07 58.30 58.95 57.95 56.34 55.70 55.42 60.46 64.32 72.76 72.68 73.02 73.18 73.42 73.25 75.58 75.22 74.67 75.47 74.71 74.89 74.60 74.57 73.51 72.21 72.68 73.54 73.42 74.37 74.29 73.85 73.31 72.33 71.46 70.92 70.55 64.55
44.98 42.09 46.36 49.22 51.21 51.72 50.53 50.33 51.58 49.98 48.85 51.76 53.04 54.26 55.04 55.61 54.42 55.05 55.13 55.25 59.32 66.51 72.61 72.56 72.84 72.77 72.41 72.62 74.42 74.25 74.42 74.29 74.12 73.76 73.93 72.67 72.32 72.69 72.40 70.98 72.57 71.44 72.94 70.21 70.64 69.42 67.45 64.77 63.44
41.59 46.66 47.60 47.65 50.46 50.44 48.66 51.14 51.74 50.38 49.45 52.81 52.88 54.26 54.80 54.07 53.21 54.30 54.53 56.50 55.39 57.62 68.82 72.46 72.33 71.95 71.03 70.87 73.54 73.54 73.72 73.76 73.44 73.48 73.58 72.81 71.93 70.62 70.90 70.17 69.82 69.57 69.58 67.33 66.70 65.81 64.86 63.44 62.90
44.00 45.97 48.40 48.91 48.55 47.06 50.07 48.51 49.17 49.19 51.99 53.49 53.72 53.85 53.25 52.85 52.77 53.64 54.04 55.87 56.20 57.63 70.86 72.26 73.06 70.67 70.63 71.45 73.02 72.57 72.52 73.11 73.39 73.42 73.69 73.39 71.90 70.82 70.06 69.52 68.78 68.88 67.98 66.77 64.24 64.20 64.19 63.43 62.94
46.33 46.90 47.45 47.94 47.94 46.86 47.28 48.01 48.61 49.72 52.30 51.99 51.96 51.92 51.58 52.96 52.94 52.49 54.18 54.20 53.98 57.28 66.91 71.64 71.27 70.51 70.43 72.36 72.30 72.16 71.54 72.07 72.16 72.73 73.31 73.74 72.74 71.40 70.55 68.79 68.46 68.26 67.48 66.92 64.27 64.66 63.69 63.67 64.53
47.93 43.62 46.22 46.68 46.15 46.51 48.15 45.04 46.28 50.25 51.30 50.17 50.51 50.51 52.34 53.10 54.36 54.07 56.05 56.37 56.82 55.59 60.58 69.55 67.21 67.26 68.35 72.90 72.98 73.26 71.59 70.91 71.21 71.13 71.82 72.43 72.24 70.44 70.98 69.85 68.86 68.80 67.46 66.21 65.06 64.02 65.75 65.01 65.63
43.97 43.21 38.17 44.22 47.05 47.89 46.59 40.01 48.05 50.29 49.97 49.58 50.98 51.48 52.34 51.95 52.99 53.54 54.57 55.86 60.09 59.54 60.58 61.72 66.79 72.40 72.93 73.89 73.26 72.83 73.68 72.13 71.14 70.93 70.98 71.49 71.33 70.72 70.10 70.12 69.74 68.78 68.39 66.77 66.22 64.80 65.58 66.58 65.40
40.78 35.26 37.68 41.82 46.20 46.30 44.08 41.15 48.06 49.89 49.27 48.93 49.73 50.79 51.75 51.43 53.35 54.02 54.63 53.95 57.68 57.04 57.81 58.34 60.93 65.45 71.66 73.21 73.84 73.42 72.40 72.67 71.75 71.11 71.02 71.34 71.03 71.41 70.71 70.50 69.50 68.38 67.90 66.93 67.77 65.86 65.96 65.68 64.00
37.69 37.62 40.05 40.70 45.51 46.17 42.55 42.73 46.55 48.41 48.65 48.32 48.68 49.73 50.43 51.20 52.28 54.95 55.41 55.79 55.75 57.86 58.77 58.19 58.12 58.50 63.00 62.42 72.08 73.80 73.26 72.33 73.06 72.18 71.24 70.36 70.34 70.45 71.57 71.41 69.53 68.32 68.02 66.99 66.30 66.09 65.48 65.37 65.05
43.37 41.57 40.67 43.70 46.24 44.38 42.76 42.47 44.67 46.89 47.26 47.00 47.55 48.29 49.39 50.52 52.37 53.37 56.01 56.28 55.96 57.67 56.57 57.46 58.42 59.59 61.80 63.11 66.14 70.70 69.85 71.38 71.24 72.01 71.73 70.21 71.26 70.63 70.40 71.78 69.58 68.97 67.99 67.21 65.58 64.19 64.11 63.86 64.86
43.86 41.25 40.04 44.08 46.59 43.42 42.74 42.44 45.51 46.46 46.91 47.40 47.99 48.59 49.50 49.48 51.17 53.49 54.73 57.08 57.59 57.36 58.53 60.91 61.17 63.10 64.76 64.87 65.45 68.29 70.20 71.74 72.65 72.44 72.10 71.97 70.81 71.78 70.47 70.61 70.56 69.58 68.78 67.01 66.63 66.30 65.07 64.82 64.50
41.88 40.39 41.24 40.92 44.51 44.88 42.79 40.20 43.10 47.28 48.37 49.56 49.73 50.18 50.05 49.97 51.07 53.42 55.14 55.15 55.50 55.87 56.91 58.85 60.53 61.24 60.96 61.68 64.18 61.17 65.66 69.31 69.28 70.08 70.81 71.76 71.86 71.85 71.85 70.82 70.36 69.99 69.13 67.61 66.88 66.71 65.77 64.06 65.19
38.97 45.19 44.63 43.38 40.89 34.43 43.46 31.43 40.68 44.85 46.33 48.32 48.64 48.54 49.28 50.70 51.95 52.53 52.69 53.14 53.87 55.45 57.27 59.35 58.84 58.61 59.36 60.81 60.15 59.35 59.83 60.96 64.00 68.27 70.26 71.16 71.99 71.63 71.24 70.72 70.26 69.07 69.36 68.23 67.02 67.34 66.32 65.26 63.46
41.97 47.24 45.12 44.10 39.16 37.61 39.48 33.97 38.54 44.07 44.32 45.91 47.09 48.94 48.72 49.67 50.63 51.26 52.06 53.68 54.60 55.32 54.63 57.35 58.29 56.99 59.73 58.28 58.99 59.31 58.87 60.51 62.57 64.89 67.68 68.99 70.36 71.41 71.39 71.26 70.13 69.25 68.49 68.63 68.28 66.65 67.17 66.01 64.28
48.30 44.57 43.20 41.32 37.64 30.19 38.39 36.64 37.40 41.90 44.39 45.42 47.08 48.71 49.76 50.41 50.90 51.51 52.39 53.42 53.20 54.15 54.77 54.40 54.51 56.25 58.28 58.71 58.31 58.13 57.83 58.69 59.98 61.69 63.20 66.77 69.09 70.01 70.81 70.85 70.98 70.13 69.65 68.50 68.35 67.91 66.66 67.25 66.05
44.44 37.74 29.74 28.22 28.69 29.78 41.27 38.46 39.32 46.40 46.91 47.18 46.28 47.89 49.15 49.58 49.20 49.50 48.04 50.12 51.09 52.61 53.22 54.13 53.79 54.76 56.59 58.08 58.26 58.43 58.38 59.08 59.38 60.45 62.33 64.48 67.21 68.30 68.84 69.82 69.76 71.05 70.67 70.04 69.91 68.26 67.96 67.54 67.31
42.90 40.83 34.33 26.54 26.96 31.81 41.99 35.47 41.92 46.83 47.98 48.38 49.20 48.42 49.02 47.55 47.52 48.04 48.20 49.89 50.41 50.16 51.66 52.97 52.53 53.33 55.02 55.27 56.43 56.61 57.03 59.22 60.38 61.29 62.36 63.76 65.58 68.26 68.91 69.34 69.78 69.74 70.68 70.95 69.86 69.77 69.69 68.37 69.40
42.09 37.94 42.82 34.78 36.59 30.85 34.98 39.81 45.42 47.92 46.87 47.75 47.34 47.86 46.99 47.86 48.03 48.38 48.30 48.62 50.72 50.71 52.09 53.04 52.96 52.73 54.35 54.76 55.96 54.99 56.47 57.04 58.42 60.34 61.88 63.14 64.88 67.21 67.96 65.15 65.59 67.28 69.10 69.40 65.74 61.17 60.79 67.69 69.26
43.41 45.51 36.04 35.50 27.67 25.10 33.93 36.50 38.09 41.68 42.69 44.64 43.34 42.82 43.99 45.91 46.74 47.05 49.18 50.01 51.14 51.58 51.55 51.46 52.47 53.42 54.34 54.01 55.07 55.45 56.08 57.14 57.30 58.68 59.89 61.24 63.32 62.84 59.52 60.27 60.94 62.85 62.59 62.80 63.88 62.12 60.75 59.38 64.87
41.67 38.23 39.42 39.23 37.11 26.03 25.36 33.30 44.32 41.59 42.36 42.10 42.65 44.41 44.48 44.72 46.18 47.57 48.48 49.19 49.81 50.33 50.46 50.77 51.39 52.73 52.33 52.27 52.16 52.94 54.34 55.73 56.82 56.25 58.42 60.73 60.76 57.16 57.77 59.56 60.46 61.16 60.25 61.88 59.00 59.60 60.29 59.30 59.44
45.35 39.86 40.05 32.80 31.96 33.91 31.81 32.93 46.63 45.49 43.73 43.88 43.36 44.81 44.36 44.21 47.04 46.91 47.53 48.13 48.56 49.15 50.53 49.91 49.87 50.42 50.53 50.82 51.65 51.49 52.23 54.14 54.79 55.38 56.31 58.71 57.50 57.14 58.07 60.21 61.30 61.00 60.61 60.33 58.49 58.79 59.30 58.46 58.06
MSLP
1010.11 1009.31 1009.08 1009.07 1010.06 1008.97 1007.91 1005.81 1004.34 1002.79 1001.11 1000.32 999.07 1000.25 1001.46 1001.65 1002.47 1004.92 1005.43 1005.17 1006.22 1007.10 1007.99 1008.38 1008.18 1008.35 1008.81 1009.39 1010.00 1010.55 1010.90 1011.21 1011.62 1012.05 1012.51 1012.87 1013.13 1013.34 1013.71 1013.97 1014.20 1014.36 1014.58 1014.82 1015.03 1015.24 1015.43 1015.63 1015.76
1010.13 1009.75 1009.04 1009.07 1009.23 1008.80 1006.86 1004.79 1003.28 1002.16 1001.14 1000.01 999.78 1000.47 1001.48 1002.72 1002.78 1004.01 1005.40 1005.81 1006.00 1007.06 1007.89 1008.48 1008.43 1008.71 1009.12 1009.59 1010.21 1010.65 1010.97 1011.41 1011.83 1012.27 1012.69 1013.03 1013.32 1013.59 1013.92 1014.20 1014.45 1014.64 1014.80 1015.01 1015.24 1015.39 1015.54 1015.75 1015.89
1010.28 1010.05 1010.14 1009.31 1008.57 1007.99 1006.16 1004.11 1002.55 1001.95 1000.67 1000.49 1000.15 1000.86 1001.79 1002.93 1003.18 1003.89 1004.91 1005.79 1005.99 1007.35 1008.10 1008.53 1008.49 1008.80 1009.22 1009.77 1010.21 1010.82 1011.13 1011.57 1011.97 1012.39 1012.77 1013.22 1013.55 1013.83 1014.06 1014.30 1014.53 1014.74 1014.93 1015.06 1015.20 1015.39 1015.61 1015.74 1015.95
1010.21 1009.55 1009.75 1008.91 1008.35 1006.46 1005.12 1003.28 1002.16 1001.23 1001.23 1000.60 1000.65 1001.90 1002.61 1002.41 1002.71 1003.91 1005.24 1005.88 1006.60 1007.32 1008.10 1008.59 1008.73 1008.86 1009.23 1009.80 1010.37 1010.81 1011.24 1011.60 1012.10 1012.50 1012.84 1013.19 1013.61 1013.92 1014.14 1014.32 1014.54 1014.79 1014.98 1015.13 1015.31 1015.45 1015.62 1015.76 1015.94
1010.31 1010.11 1009.51 1008.85 1007.49 1005.68 1004.06 1002.70 1000.80 1000.58 1000.91 1000.81 1001.19 1002.68 1003.04 1003.33 1003.21 1003.96 1005.05 1005.70 1006.34 1007.43 1008.18 1008.73 1008.93 1009.27 1009.53 1009.90 1010.34 1010.79 1011.23 1011.74 1011.96 1012.50 1012.84 1013.21 1013.59 1013.91 1014.12 1014.22 1014.48 1014.72 1014.98 1015.18 1015.42 1015.61 1015.71 1015.82 1016.00
1010.60 1009.69 1009.34 1008.76 1007.07 1005.10 1003.45 1002.17 1001.20 1001.33 1001.08 1000.91 1001.92 1002.74 1003.50 1003.43 1003.57 1003.96 1004.56 1005.16 1005.91 1007.12 1008.01 1008.59 1009.01 1009.48 1009.84 1010.14 1010.61 1010.97 1011.21 1011.66 1012.16 1012.31 1012.82 1013.17 1013.52 1013.88 1014.18 1014.45 1014.60 1014.72 1014.92 1015.12 1015.36 1015.65 1015.79 1015.88 1015.97
1009.90 1009.88 1009.06 1008.05 1006.65 1004.83 1003.35 1001.64 1001.15 1001.52 1001.39 1001.80 1002.16 1003.21 1003.84 1003.49 1003.54 1003.66 1004.00 1004.79 1005.81 1006.75 1007.74 1008.44 1008.99 1009.49 1010.01 1010.42 1010.67 1011.05 1011.35 1011.62 1011.93 1012.44 1012.54 1013.04 1013.46 1013.78 1014.07 1014.36 1014.60 1014.80 1014.97 1015.16 1015.39 1015.58 1015.75 1015.84 1015.89
1009.25 1009.61 1008.97 1007.41 1005.97 1004.71 1003.19 1001.79 1002.15 1001.67 1001.68 1001.96 1002.23 1003.48 1003.85 1003.65 1003.40 1003.62 1003.71 1004.66 1005.56 1006.36 1007.19 1008.16 1008.94 1009.52 1010.00 1010.50 1010.80 1011.00 1011.33 1011.66 1011.95 1012.24 1012.70 1012.96 1013.17 1013.57 1013.90 1014.20 1014.42 1014.59 1014.81 1015.01 1015.19 1015.36 1015.53 1015.74 1015.80
1008.52 1008.84 1008.04 1006.74 1005.57 1004.34 1003.17 1003.35 1002.15 1002.07 1001.94 1002.43 1002.59 1003.48 1003.56 1003.37 1003.37 1003.51 1003.98 1005.12 1005.54 1006.34 1006.79 1007.57 1008.37 1009.14 1009.89 1010.47 1010.81 1011.06 1011.30 1011.65 1012.06 1012.31 1012.56 1013.02 1013.39 1013.57 1013.73 1014.00 1014.24 1014.50 1014.66 1014.72 1014.90 1015.10 1015.30 1015.39 1015.39
1007.71 1007.78 1006.89 1006.03 1004.88 1004.23 1003.17 1003.51 1003.31 1002.95 1002.28 1002.47 1002.85 1002.43 1003.08 1003.14 1003.47 1003.77 1004.20 1005.14 1006.12 1006.49 1006.77 1006.87 1007.33 1007.98 1009.09 1009.83 1010.70 1011.22 1011.36 1011.49 1011.88 1012.22 1012.58 1012.86 1013.00 1013.31 1013.41 1013.63 1013.89 1014.12 1014.36 1014.61 1014.78 1014.88 1014.95 1015.03 1015.14
1007.05 1006.63 1006.38 1005.40 1004.53 1003.88 1003.54 1003.57 1003.31 1003.62 1003.12 1002.94 1003.29 1003.12 1002.97 1003.37 1004.08 1004.26 1004.30 1004.48 1005.16 1005.93 1006.61 1006.83 1007.51 1007.61 1008.12 1008.82 1009.95 1010.56 1011.04 1011.46 1011.66 1011.89 1012.19 1012.42 1012.69 1012.94 1013.09 1013.28 1013.60 1013.85 1014.04 1014.35 1014.46 1014.58 1014.73 1014.88 1014.80
1006.59 1005.86 1005.60 1004.74 1003.99 1003.77 1003.57 1003.08 1003.94 1003.99 1003.87 1003.37 1003.27 1003.27 1003.37 1003.67 1004.05 1004.38 1004.57 1004.40 1004.73 1005.25 1005.25 1007.03 1007.80 1007.75 1008.72 1008.59 1009.43 1009.90 1010.55 1010.68 1011.09 1011.14 1011.46 1011.94 1012.23 1012.46 1012.60 1012.92 1013.23 1013.49 1013.63 1013.88 1014.01 1014.33 1014.35 1014.36 1014.34
1005.65 1005.28 1004.80 1004.17 1003.70 1003.77 1003.24 1003.32 1003.70 1003.84 1003.61 1003.38 1003.36 1003.39 1003.71 1004.00 1004.29 1004.27 1004.52 1004.50 1004.44 1005.10 1005.62 1005.99 1007.00 1006.40 1007.38 1006.53 1008.07 1009.17 1009.28 1010.02 1010.26 1010.60 1010.94 1011.05 1011.42 1011.86 1011.93 1012.23 1012.54 1012.81 1013.12 1013.32 1013.51 1013.60 1013.74 1013.86 1013.72
1004.38 1004.33 1003.96 1003.69 1003.48 1003.35 1003.36 1003.38 1003.54 1003.59 1003.55 1003.61 1003.71 1003.77 1004.00 1004.21 1004.47 1004.64 1004.72 1004.75 1004.68 1005.04 1006.42 1006.56 1006.23 1006.21 1005.78 1006.37 1007.79 1008.14 1008.64 1009.07 1009.60 1009.76 1010.19 1010.64 1010.76 1010.75 1011.12 1011.30 1011.71 1011.96 1011.95 1012.16 1012.42 1012.73 1012.98 1013.03 1013.14
1003.90 1003.85 1003.62 1003.26 1003.04 1002.93 1003.14 1003.40 1003.54 1003.41 1003.41 1003.55 1003.70 1003.94 1004.10 1004.40 1004.53 1004.88 1005.01 1005.09 1004.88 1005.12 1006.19 1006.59 1006.61 1006.48 1006.79 1007.17 1007.20 1007.61 1008.09 1008.63 1009.11 1008.99 1009.12 1009.31 1009.97 1010.43 1010.61 1010.46 1010.57 1010.46 1010.99 1011.06 1011.70 1011.50 1011.99 1012.50 1012.15
1003.11 1003.53 1003.68 1003.29 1003.09 1003.11 1003.23 1003.56 1003.39 1002.98 1003.07 1003.62 1003.86 1004.14 1004.34 1004.45 1004.60 1004.60 1004.74 1004.95 1005.08 1005.44 1005.66 1006.26 1006.63 1006.51 1006.85 1007.23 1007.37 1007.25 1007.60 1007.79 1008.19 1008.18 1008.41 1008.81 1009.05 1009.60 1010.11 1010.33 1010.00 1009.98 1010.06 1009.70 1010.24 1011.10 1010.32 1011.10 1011.61
1003.53 1004.20 1003.79 1003.50 1002.79 1002.78 1003.08 1003.34 1002.99 1002.75 1002.60 1003.51 1003.92 1004.13 1004.37 1004.45 1004.61 1004.51 1004.55 1004.67 1004.98 1005.27 1005.57 1005.56 1005.70 1006.80 1007.13 1007.32 1007.73 1007.69 1007.51 1007.23 1007.23 1007.40 1007.70 1008.00 1008.13 1008.49 1008.99 1009.42 1009.47 1009.59 1010.05 1010.04 1009.68 1009.73 1009.86 1010.33 1010.71
1004.18 1003.96 1003.66 1003.05 1002.10 1002.41 1002.76 1003.04 1002.74 1002.95 1002.92 1003.26 1003.59 1003.62 1003.93 1004.25 1004.27 1004.24 1004.42 1004.44 1004.71 1005.06 1005.35 1005.47 1005.56 1005.74 1006.76 1006.83 1007.45 1007.24 1007.37 1007.47 1007.19 1007.11 1007.34 1007.40 1007.82 1008.19 1008.67 1008.86 1008.76 1008.97 1009.25 1009.39 1009.72 1009.56 1009.88 1009.77 1009.77
1003.57 1003.46 1003.14 1002.24 1001.15 1001.41 1002.38 1002.59 1002.78 1002.74 1002.97 1003.57 1003.81 1004.01 1004.07 1004.06 1003.76 1003.74 1004.00 1004.11 1004.39 1004.94 1005.13 1005.29 1005.60 1005.99 1006.37 1006.83 1006.98 1007.26 1007.36 1007.41 1007.31 1007.07 1006.95 1007.25 1007.33 1007.58 1007.77 1008.15 1008.31 1008.53 1008.63 1008.95 1009.40 1009.54 1009.40 1009.73 1009.86
1002.98 1002.97 1002.62 1002.07 1001.80 1002.11 1002.57 1002.89 1002.62 1002.72 1002.88 1002.97 1003.25 1003.58 1003.78 1003.95 1003.99 1004.31 1004.79 1005.51 1006.04 1006.35 1006.41 1006.43 1006.67 1006.90 1007.11 1007.40 1007.38 1007.26 1007.20 1007.00 1007.07 1007.03 1006.82 1006.50 1006.64 1006.68 1007.09 1007.12 1007.41 1007.69 1007.91 1008.10 1008.50 1008.61 1009.08 1009.47 1009.69
1002.36 1002.74 1002.89 1002.96 1002.62 1002.73 1003.04 1003.32 1003.16 1002.92 1002.90 1002.87 1002.97 1003.15 1003.56 1004.19 1005.02 1005.30 1005.73 1006.11 1006.38 1006.56 1006.59 1006.97 1007.28 1007.31 1007.43 1007.56 1007.58 1007.49 1007.30 1007.18 1007.05 1007.08 1006.83 1006.37 1006.32 1006.14 1005.88 1006.12 1006.16 1006.73 1007.14 1007.48 1007.67 1007.77 1008.02 1008.46 1008.92
1002.44 1002.71 1003.06 1003.42 1003.79 1004.33 1003.97 1004.63 1004.22 1003.58 1003.23 1002.78 1003.23 1004.24 1004.62 1004.76 1004.92 1005.45 1005.93 1006.11 1006.43 1006.73 1006.75 1006.95 1007.19 1007.28 1007.18 1007.19 1007.49 1007.80 1007.96 1007.79 1007.34 1006.91 1006.39 1006.19 1005.82 1005.64 1005.68 1005.55 1005.53 1005.88 1005.85 1005.97 1006.47 1007.03 1006.86 1007.22 1007.81
1002.68 1003.02 1003.76 1004.36 1005.09 1005.42 1005.48 1005.78 1004.51 1003.83 1003.58 1004.11 1004.51 1004.75 1005.09 1005.23 1005.35 1005.75 1006.01 1006.14 1006.50 1006.45 1006.68 1006.95 1007.04 1007.01 1007.04 1007.01 1007.07 1007.22 1007.45 1007.53 1007.19 1006.75 1005.96 1005.45 1005.21 1004.73 1004.56 1004.67 1004.87 1005.20 1004.97 1004.88 1005.00 1005.47 1006.12 1005.90 1006.29
1002.60 1003.47 1004.56 1005.52 1006.44 1007.03 1006.08 1006.36 1005.09 1004.19 1003.93 1004.30 1004.66 1005.04 1005.22 1005.40 1005.54 1005.80 1005.88 1006.09 1006.34 1006.37 1006.61 1006.82 1007.00 1007.07 1006.93 1006.91 1006.87 1006.98 1007.00 1006.91 1006.60 1006.35 1005.78 1005.04 1004.49 1003.83 1003.47 1003.34 1003.79 1003.94 1003.88 1004.19 1003.77 1004.01 1004.72 1005.10 1005.22
1002.99 1004.37 1006.32 1007.27 1007.56 1007.32 1006.41 1005.98 1004.73 1003.94 1003.71 1004.03 1004.67 1005.04 1005.26 1005.48 1005.69 1005.83 1005.93 1006.13 1006.21 1006.39 1006.50 1006.70 1006.84 1006.94 1006.85 1006.72 1006.72 1006.74 1006.64 1006.41 1006.18 1005.76 1005.10 1004.51 1003.95 1003.21 1002.47 1002.41 1002.59 1002.67 1002.76 1002.61 1002.91 1002.94 1003.08 1003.64 1004.05
1003.69 1004.92 1006.79 1008.24 1008.14 1007.57 1006.69 1006.09 1004.39 1003.76 1003.89 1004.34 1004.94 1005.15 1005.36 1005.62 1005.56 1005.62 1005.60 1005.61 1005.76 1005.96 1006.13 1006.40 1006.45 1006.50 1006.41 1006.26 1006.18 1006.10 1006.07 1005.95 1005.67 1005.37 1004.80 1003.87 1003.37 1002.80 1001.92 1001.51 1001.42 1001.56 1001.34 1001.29 1001.64 1001.37 1001.57 1002.18 1002.67
1004.67 1005.42 1006.98 1008.22 1008.43 1008.29 1007.08 1005.46 1004.10 1004.17 1004.49 1004.77 1005.03 1005.27 1005.42 1005.31 1005.16 1004.96 1004.98 1005.21 1005.56 1005.74 1005.89 1005.84 1005.91 1005.83 1005.73 1005.59 1005.48 1005.41 1005.22 1005.17 1004.94 1004.65 1004.17 1003.44 1002.55 1002.08 1001.70 1001.37 1001.19 1001.50 1001.14 1000.60 1001.79 1001.15 1002.38 1003.04 1001.71
1005.21 1006.11 1007.25 1008.58 1009.66 1009.32 1007.61 1005.98 1005.29 1005.23 1005.07 1004.96 1005.08 1005.09 1004.96 1004.85 1004.86 1005.00 1005.36 1005.41 1005.50 1005.57 1005.40 1005.36 1005.26 1005.26 1005.06 1005.01 1004.99 1004.72 1004.55 1004.32 1003.97 1003.76 1003.52 1003.02 1002.17 1001.61 1001.62 1001.21 1000.85 1000.75 1001.00 1001.43 1001.72 1001.66 1002.33 1003.42 1003.78
1006.22 1006.53 1007.45 1008.63 1009.81 1009.92 1008.93 1006.86 1005.15 1005.19 1004.98 1004.94 1005.01 1004.93 1004.80 1004.74 1005.11 1005.03 1005.19 1005.07 1005.22 1005.35 1005.34 1005.26 1005.28 1005.08 1004.85 1004.61 1004.30 1004.01 1003.87 1003.58 1003.31 1003.19 1002.93 1002.43 1002.10 1001.53 1001.19 1000.57 1000.27 1000.06 1000.58 1001.10 1001.66 1001.98 1002.66 1002.34 1002.81
1006.19 1006.76 1007.43 1008.53 1009.45 1009.44 1008.69 1006.97 1005.11 1005.13 1004.89 1004.62 1004.68 1004.65 1004.68 1005.04 1005.23 1005.68 1005.99 1005.99 1006.15 1006.28 1006.42 1006.50 1006.48 1006.66 1006.31 1006.07 1005.54 1004.78 1003.70 1002.99 1002.80 1002.60 1002.15 1002.08 1002.07 1001.87 1001.20 1000.29 999.91 999.53 999.48 1000.26 1000.84 1001.09 1001.07 1000.73 1002.81
Wind_Speed
8 10 7 2 1 2 7 12 11 15 15 5 6 8 15 11 6 7 5 19 19 16 12 12 18 20 20 19 17 16 15 16 16 16 15 14 14 15 13 13 12 12 13 12 11 11 11 10 10
4 8 3 3 3 4 8 16 19 2 10 6 6 13 16 15 17 12 10 16 19 15 11 10 17 18 19 18 16 16 16 16 16 15 15 14 13 14 13 12 11 11 12 11 10 10 10 9 9
7 6 2 3 4 10 9 14 2 5 10 8 3 13 5 6 10 4 17 18 18 14 10 10 17 18 19 18 18 16 16 16 16 15 15 14 13 12 12 11 10 10 11 11 11 10 9 8 7
3 3 4 2 10 15 21 18 20 8 9 3 5 9 5 6 6 13 19 19 16 14 12 13 14 17 18 18 17 17 16 17 15 15 15 15 13 12 11 11 10 9 9 10 9 9 8 7 6
2 4 3 5 11 14 18 16 7 8 9 2 11 6 7 11 11 18 20 19 17 13 12 10 12 13 16 17 17 17 16 15 17 15 15 14 13 12 12 12 11 10 9 9 9 7 7 6 5
3 4 2 8 16 18 17 14 6 9 5 2 13 11 5 9 9 8 16 17 18 16 13 12 14 12 12 15 15 15 16 16 14 17 15 14 13 12 11 10 9 9 9 9 8 7 6 5 4
7 3 6 9 16 12 14 8 7 2 4 5 10 12 1 7 7 7 9 16 18 17 15 11 10 12 12 12 13 14 14 15 16 14 17 16 14 13 12 11 10 9 8 8 7 7 6 5 5
5 3 9 12 15 14 15 16 6 1 3 5 7 4 2 2 5 4 9 12 19 17 16 14 10 9 8 8 12 13 13 13 15 16 14 15 16 14 13 12 11 10 10 9 9 8 7 6 6
13 8 11 17 15 15 1 9 20 7 2 5 5 9 7 6 3 6 1 3 16 13 15 15 15 12 9 7 9 12 15 14 13 13 15 12 5 8 10 10 11 11 10 10 10 9 8 8 8
9 11 15 13 15 11 11 8 9 14 2 2 3 5 8 9 6 3 2 6 4 14 15 16 17 17 12 9 8 6 7 9 8 8 9 7 7 7 10 11 14 13 12 11 10 10 10 9 4
10 14 11 18 20 17 10 3 10 6 4 4 5 4 4 7 6 2 2 1 8 8 11 15 13 13 14 11 9 6 5 5 6 9 9 7 7 7 7 5 7 6 11 5 7 6 5 6 5
9 14 17 11 14 16 6 12 15 4 6 7 4 5 5 6 6 5 7 7 5 4 12 16 9 10 6 5 7 9 7 8 7 10 12 9 5 6 8 6 7 6 5 7 6 4 6 8 8
15 15 17 15 14 8 6 6 6 7 9 7 8 6 6 7 7 7 6 8 7 7 15 17 17 14 12 12 11 9 10 9 10 10 11 10 10 7 7 8 8 8 6 7 6 7 8 7 8
10 16 14 14 18 7 8 5 5 6 7 7 5 4 4 5 5 5 8 7 7 1 10 9 12 10 10 10 13 11 9 10 10 10 11 12 9 9 10 9 10 9 9 9 9 9 8 8 7
16 6 12 11 5 6 3 4 8 10 9 10 7 5 5 6 6 5 3 6 7 2 10 11 12 7 5 10 8 8 9 7 10 10 13 16 12 10 9 9 11 11 10 12 9 10 8 8 9
6 2 4 8 9 8 9 8 10 10 14 10 11 7 7 7 7 6 6 3 8 8 8 8 6 10 12 8 8 6 7 9 8 10 8 15 14 10 11 9 9 9 10 12 12 10 11 11 9
1 4 5 10 11 9 9 5 13 5 8 8 9 8 7 7 9 9 9 6 8 7 5 5 5 9 5 5 5 5 5 4 6 6 8 13 17 15 12 9 10 6 8 9 9 11 10 10 6
7 8 8 11 18 17 9 8 9 7 8 11 10 9 8 9 10 9 10 9 7 7 7 6 3 2 7 4 4 4 4 4 4 4 5 9 8 13 12 10 10 9 7 8 5 8 6 7 9
7 7 9 5 4 14 10 7 7 4 2 6 8 8 8 9 8 7 6 8 8 3 3 5 5 1 2 2 1 3 4 4 5 5 7 6 8 14 15 10 9 8 12 9 6 3 6 5 5
12 5 6 7 6 3 4 5 2 3 6 6 6 6 6 3 5 6 10 14 12 8 9 9 8 8 4 1 2 2 3 4 5 7 8 11 12 13 13 15 12 14 10 14 10 11 7 7 5
2 3 6 6 7 7 3 5 5 8 6 8 7 9 4 7 10 10 9 8 8 7 7 7 6 5 4 5 3 4 4 4 5 9 8 11 11 14 18 18 16 14 12 11 14 12 16 11 8
5 7 9 10 2 2 6 4 5 8 9 15 1 10 8 10 10 8 8 7 6 4 6 6 5 4 3 4 3 3 2 6 7 6 8 11 13 15 15 17 17 16 14 17 13 12 14 13 12
7 6 7 7 7 7 9 4 8 9 11 10 8 9 8 9 9 8 7 7 7 7 5 5 5 5 2 3 3 2 3 4 7 9 12 13 14 17 17 18 17 15 13 16 18 18 16 14 11
6 6 7 5 1 2 16 6 9 10 10 7 8 8 8 9 8 7 6 6 4 5 6 5 5 4 5 4 5 4 6 8 8 11 12 11 11 13 17 18 18 19 16 19 18 18 18 16 16
3 6 2 4 1 8 1 3 8 4 9 11 9 8 8 8 6 3 3 3 4 1 1 1 0 4 5 4 5 7 8 8 9 14 12 14 11 11 15 16 17 16 17 19 18 16 19 21 17
2 6 5 4 3 5 3 7 5 7 10 10 9 8 5 3 4 4 3 4 5 4 5 5 5 6 6 6 6 6 7 5 7 10 12 10 12 12 16 14 16 20 22 19 19 15 16 18 17
4 3 4 0 5 1 4 6 6 16 10 8 6 6 8 8 7 7 7 6 5 5 6 6 7 8 8 7 6 7 7 7 5 8 9 10 13 12 15 10 8 12 18 23 6 4 7 22 16
2 4 3 4 3 4 5 5 6 4 5 5 3 3 2 5 6 5 2 4 5 7 7 8 8 9 9 6 6 6 7 7 6 5 9 13 13 7 6 6 5 6 7 8 10 7 10 16 22
5 4 3 5 6 5 1 4 9 4 6 5 5 7 8 8 3 3 3 4 5 4 5 6 6 7 6 7 7 7 7 7 6 5 6 10 8 4 7 8 8 7 6 7 7 6 5 9 17
9 6 5 6 5 3 5 9 12 4 6 7 9 9 7 1 5 7 7 7 8 8 12 11 11 13 14 15 16 13 8 7 6 6 7 4 5 6 8 6 8 10 11 10 10 7 1 5 21
Wind_Direction
304 307 312 284 42 186 246 254 275 282 267 330 66 66 74 45 88 143 140 120 123 129 139 150 140 137 137 137 136 136 133 128 127 124 123 118 115 115 114 114 115 116 116 116 116 114 113 109 104
312 320 308 259 162 255 260 256 255 4 316 25 32 87 67 66 81 106 117 128 125 129 138 152 143 139 137 137 137 139 135 133 133 131 129 127 124 122 122 123 121 117 119 121 121 120 119 117 110
285 226 31 213 202 235 251 258 103 171 276 321 2 78 58 108 64 71 122 128 119 129 133 156 146 142 142 142 141 143 139 139 139 138 135 133 131 129 129 129 127 129 131 132 129 127 126 126 122
304 323 290 211 253 255 245 262 273 84 264 20 73 75 55 6 104 131 135 130 125 134 135 150 149 146 147 147 146 146 146 144 144 144 141 140 141 141 140 139 139 141 142 139 135 135 136 136 132
227 269 237 236 252 259 263 280 272 139 238 76 93 96 93 80 105 122 137 135 135 129 135 142 143 148 148 149 150 151 148 151 149 150 147 147 148 150 152 152 153 151 149 143 141 143 146 148 150
272 182 244 223 255 262 268 257 97 265 1 96 101 99 95 121 108 131 141 143 140 136 143 149 143 142 149 151 152 154 153 153 158 153 152 153 153 156 156 157 157 156 153 150 148 153 157 163 173
198 249 237 236 259 266 260 272 138 292 327 26 100 103 143 59 133 157 151 142 136 139 139 144 144 144 146 149 153 157 160 161 159 164 157 158 159 160 161 163 163 161 157 154 155 160 168 182 197
207 204 258 249 252 257 265 307 179 106 277 12 126 150 103 4 25 163 149 143 144 144 145 145 141 139 137 151 157 160 163 168 167 164 165 166 163 165 168 168 170 166 165 165 168 172 180 197 218
213 233 237 246 248 261 214 38 303 300 26 74 358 122 166 131 41 355 108 99 146 146 149 153 151 151 154 153 170 166 166 166 172 170 165 158 164 169 171 173 178 175 174 174 177 182 194 207 221
204 220 234 250 259 260 303 357 257 302 330 32 277 281 159 149 151 266 335 98 58 159 162 163 161 158 161 165 158 164 179 181 169 169 168 171 169 179 181 187 185 181 181 182 186 194 200 208 220
245 229 226 244 261 269 268 74 312 1 315 275 354 352 30 55 59 326 313 52 162 159 166 174 161 157 164 169 160 172 174 175 178 180 175 182 189 189 191 186 184 182 188 184 192 196 201 216 219
231 235 237 254 239 250 215 151 217 288 259 309 354 338 11 45 352 338 323 304 297 222 174 143 142 138 177 146 175 173 183 181 187 190 180 186 198 191 193 178 183 181 189 190 189 198 210 217 225
220 234 226 246 256 251 152 168 199 244 276 311 338 8 32 15 344 309 300 307 336 21 142 148 163 146 194 176 174 187 183 187 190 190 192 186 194 204 185 180 182 187 187 196 198 198 209 217 225
219 220 234 225 245 226 172 201 179 240 247 266 296 335 331 331 292 303 311 282 296 340 142 152 162 195 187 187 182 181 187 189 189 186 197 200 205 200 200 179 186 195 191 194 197 199 208 210 211
233 228 228 251 260 230 172 240 225 229 221 222 227 239 267 259 269 263 300 325 286 293 113 162 185 213 249 233 178 172 189 187 198 196 196 194 195 210 215 198 192 192 193 190 207 200 203 219 209
215 168 189 274 245 240 158 251 245 238 208 201 191 199 208 236 254 273 286 334 27 49 59 105 127 189 199 215 231 187 183 181 189 201 191 199 198 192 210 222 214 199 200 196 190 213 197 197 204
300 228 238 257 232 208 152 191 241 244 135 150 167 197 199 218 237 232 239 252 135 131 94 37 66 115 161 219 218 233 240 204 190 190 199 197 201 199 200 208 216 201 210 225 205 203 207 197 194
210 206 242 231 240 193 181 197 241 212 162 182 192 203 207 220 233 219 222 229 187 146 140 147 154 303 128 130 227 217 229 255 245 201 196 201 207 210 211 213 206 200 222 216 219 193 203 199 203
258 260 230 293 249 151 183 196 214 270 306 198 201 209 216 217 230 229 201 207 214 153 160 163 152 256 22 63 85 259 238 235 259 250 224 195 194 206 214 213 206 206 215 217 218 206 180 217 184
248 285 322 327 345 102 178 206 214 312 274 249 238 244 226 155 99 94 63 67 72 78 64 57 45 20 358 29 292 309 261 246 251 255 261 215 219 206 206 214 211 210 212 214 201 201 206 216 190
13 346 312 295 313 350 83 348 318 273 256 246 240 212 188 106 77 73 65 80 78 65 63 76 73 55 34 12 349 342 330 317 272 262 255 249 229 214 210 215 214 212 212 216 216 206 204 206 203
322 263 257 259 6 273 44 276 290 274 263 235 336 80 92 82 75 65 57 54 65 80 76 94 80 50 20 22 28 350 269 294 284 266 261 261 246 233 227 224 219 215 212 211 213 218 210 202 206
233 59 32 11 6 30 324 357 267 261 261 91 87 84 81 85 88 73 57 44 54 52 43 54 44 3 343 358 16 350 304 279 299 294 274 256 253 248 234 223 226 218 218 220 216 210 209 206 202
82 53 14 348 9 344 248 199 266 263 149 120 102 98 89 80 70 64 56 69 45 37 42 19 13 344 327 345 328 287 279 292 295 290 280 270 256 256 244 233 220 225 224 223 218 210 206 206 211
119 84 346 336 278 218 327 294 229 189 121 125 118 98 94 92 74 84 65 351 318 35 203 240 343 295 286 269 277 284 292 273 282 289 281 277 264 254 254 242 232 231 221 222 221 209 212 208 206
340 127 141 235 237 284 307 206 243 145 104 92 95 108 110 140 169 199 190 260 256 276 283 251 272 271 263 269 264 264 269 258 286 289 284 274 270 266 255 251 242 236 237 233 226 218 210 212 207
1 59 128 302 251 331 255 302 352 108 103 110 142 171 199 212 215 216 240 251 225 246 241 228 247 262 253 253 259 281 278 279 277 294 301 298 275 264 261 286 291 278 259 253 190 217 328 281 223
282 298 36 346 5 273 273 260 127 89 99 84 31 298 249 243 252 248 212 201 234 225 236 255 255 247 242 248 251 255 257 271 285 303 305 306 297 276 260 249 251 263 241 242 260 258 255 287 292
281 236 197 163 148 196 321 269 127 134 152 186 234 236 240 252 196 176 237 254 251 255 256 270 288 274 253 249 255 258 262 270 274 284 298 307 300 238 231 231 227 208 185 118 113 126 173 7 274
232 235 196 147 258 250 182 250 336 320 227 207 234 233 242 304 37 28 32 30 22 25 32 25 17 12 10 359 349 323 297 278 275 282 285 289 259 251 267 240 227 205 188 190 172 202 164 17 309